STARLINK-32446 (61262 NORAD) Tracking and Keplerian Element Data

This shows tracking and keplerian element data for the satellite.

Feedback or suggestion? Click here.




ElementValue
Catalog61262
NameSTARLINK-32446
Epoch Orbit403
Epoch Day286.91668981
Epoch Year2024
RAAN65.1979
Inclination53.159
Eccentricity0.0001419
Argument of Perigee61.9435
Mean Anonmoly318.9768
Mean Motion15.73772306
Decay Rate0.0001521
L11 61262U 24175V 24286.91668981 .00015210 00000+0 10989-3 0 9994
L22 61262 53.1590 65.1979 0001419 61.9435 318.9768 15.73772306 4032



Live tracking and technical data element details for STARLINK-32446 (NORAD 61262). STARLINK-32446 can be tracked NOW for your location showing map with azimuth and elevation plus other details from your city location.







IsCatalogInMostPopularTable: catalog: 61262, numindb: 43
Update: records affected: 1



GetName: 61262 STARLINK-32446

Hit Count: updated at: Wed, 04 Dec 2024 08:37:15 GMT